Content
SEND FEEDBACK

Daily
Averages
Monthly
Summary
United States of America

RAPID CITY, SOUTH DAKOTA


Home > North America > United States > South Dakota
Elevation: 3162 feet     Latitude: 44 03N     Longitude: 103 04W

WEATHER
 
SELECT A DAY
Number of Records: 200,374;   Date Range: 1/1/95 - 8/12/14
 
SHARE

PRINT THIS DATA

[ ← Previous Day ]
WEATHER ALMANAC - FEBRUARY 14, 2013
[ Next Day → ]
[ °C ]   °F
Weather ElementAverageHighLow
Temperature26.7 °F33.1 °F (4:52 am)10 °F (11:52 pm)
Dewpoint16.7 °F21.9 °F (1:52 am)3.9 °F (11:52 pm)
Humidity66.6 %80 % (1:38 pm)46 % (4:52 am)
Barometer30.23 in30.41 in (11:52 pm)30.01 in (3:52 am)
Wind Speed23.5 mph39.1 mph (7:52 am)
Wind Gust50.6 mph (8:52 am)
Weather ElementAverage
Visibility8 mi
Wind DirectionNNW (323.8 °)

Weather ElementTotal
Precipitation---
Heating Degree Days43.5 (Base 65)
Averaged from 34 records on February 14, 2013
WEATHER CONDITIONS BREAKOUT
WIND DIRECTION BREAKOUT
WEATHER BY HOUR - FEBRUARY 14, 2013
[ °C ]   °F
Local TimeTemperatureDewpointHumidityBarometerVisibilityWind DirectionWind SpeedGust SpeedPrecipitationEventsConditions
1:52 AM30.9 °F21.9 °F69 %30.03 in10.0 miNW (320°)28.8 mph34.5 mphScattered Clouds
2:52 AM30.9 °F19.0 °F61 %30.02 in10.0 miWNW (290°)23.0 mph29.9 mphPartly Cloudy
3:52 AM32.0 °F17.1 °F54 %30.01 in10.0 miWNW (300°)17.3 mphScattered Clouds
4:52 AM33.1 °F14.0 °F46 %30.03 in10.0 miNNW (330°)21.9 mph31.1 mphOvercast
5:52 AM30.0 °F17.1 °F59 %30.07 in10.0 miNW (320°)27.6 mph38.0 mphClear
6:52 AM28.9 °F15.1 °F56 %30.10 in10.0 miNW (320°)28.8 mph40.3 mphScattered Clouds
7:52 AM30.0 °F14.0 °F51 %30.14 in10.0 miNW (310°)39.1 mph47.2 mphClear
8:52 AM30.0 °F18.0 °F61 %30.18 in10.0 miNNW (330°)34.5 mph50.6 mph0.00 inMostly Cloudy
9:26 AM28.4 °F17.6 °F64 %30.12 in10.0 miNNW (340°)39.1 mph50.6 mph0.00 inMostly Cloudy
9:50 AM30.2 °F19.4 °F64 %30.14 in10.0 miNorth (350°)31.1 mph48.3 mph0.00 inMostly Cloudy
9:52 AM30.9 °F19.9 °F64 %30.23 in10.0 miNNW (340°)32.2 mph44.9 mph0.00 inMostly Cloudy
9:59 AM28.4 °F19.4 °F69 %30.14 in5.0 miNNW (330°)29.9 mph41.4 mph0.00 inSnowLight Snow
10:52 AM30.0 °F18.0 °F61 %30.26 in9.0 miNNW (330°)31.1 mph43.7 mph0.00 inSnowLight Snow
11:52 AM30.9 °F19.9 °F64 %30.26 in9.0 miNorth (350°)27.6 mph41.4 mph0.00 inMostly Cloudy
12:52 PM30.9 °F16.0 °F54 %30.28 in2.0 miNNW (340°)28.8 mph40.3 mph0.00 inHaze
12:59 PM28.4 °F19.4 °F69 %30.18 in8.0 miNW (320°)26.5 mph39.1 mph0.00 inSnowLight Snow
1:26 PM28.4 °F21.2 °F74 %30.19 in2.5 miNW (320°)28.8 mph40.3 mph0.00 inSnowLight Snow
1:35 PM28.4 °F21.2 °F74 %30.19 in4.0 miNNW (330°)28.8 mph35.7 mph0.00 inSnowLight Snow
1:38 PM26.6 °F21.2 °F80 %30.19 in2.5 miNNW (330°)31.1 mph39.1 mph0.00 inSnowLight Snow
1:52 PM28.9 °F21.0 °F72 %30.30 in5.0 miNW (320°)29.9 mph36.8 mph0.00 inSnowLight Snow
2:13 PM28.4 °F19.4 °F69 %30.20 in5.0 miNNW (340°)29.9 mph44.9 mph0.00 inSnowLight Snow
2:52 PM28.9 °F19.0 °F67 %30.32 in10.0 miNNW (340°)28.8 mph38.0 mph0.00 inMostly Cloudy
3:28 PM28.4 °F19.4 °F69 %30.22 in1.0 miNNW (340°)27.6 mph34.5 mph0.00 inSnowLight Snow
3:47 PM26.6 °F21.2 °F80 %30.23 in4.0 miNorth (350°)19.6 mph0.00 inSnowLight Snow
3:52 PM28.0 °F21.0 °F75 %30.34 in4.0 miNNW (340°)16.1 mph26.5 mph0.00 inSnowLight Snow
4:00 PM28.4 °F19.4 °F69 %30.23 in10.0 miNorth (350°)18.4 mph25.3 mph0.00 inMostly Cloudy
4:52 PM26.1 °F16.0 °F66 %30.35 in10.0 miNorth (350°)16.1 mph24.2 mph0.00 inClear
5:52 PM23.0 °F12.0 °F63 %30.37 in10.0 miNNW (340°)13.8 mphClear
6:52 PM19.0 °F10.9 °F71 %30.39 in10.0 miNNW (330°)9.2 mphClear
7:52 PM18.0 °F10.9 °F74 %30.39 in10.0 miNNW (340°)11.5 mphClear
8:52 PM16.0 °F10.0 °F77 %30.40 in10.0 miNW (310°)6.9 mphClear
9:52 PM15.1 °F8.1 °F74 %30.40 in10.0 miSW (230°)5.8 mphClear
10:52 PM15.1 °F7.0 °F70 %30.40 in10.0 miWSW (250°)4.6 mphClear
11:52 PM10.0 °F3.9 °F76 %30.41 in10.0 miWest (280°)3.5 mphClear
Hourly data recorded from KRAP, located miles away from Rapid City, South Dakota







STORIES FROM OUR PARTNERS